#datint,netname,site,siteID,timestamp,IntT,BattV,AirT2,AirT,AirT_Avg,AirT_Max,AirT_Min,RH_Avg,RH_Max,RH_Min,EA_Avg,Td_Avg,Td_Max,Td_Min,WindS_Smp,WindS_Avg,WindD_Avg,WindD_SD,WindS_Max,ETo,ETr,SoilT4,SoilT8,SoilVWC8,SolarW_Avg,wetstate_Avg,wetT_Avg,Precip_accum,Precip_WPG,Precip_TB
15min,AgWx,beryljct,423,06AUG2018:01:00:00,60.9,12.99,61.2,62.5,60.8,62.5,58.7,39,53,29,0.552,35.6,41.7,29.5,1.162,0.4,300,0.0,1.3,-0.00035,-0.00052,76.0,77.5,17,0,0,55.8,16.16,0.00,0.00
15min,AgWx,beryljct,423,06AUG2018:01:15:00,60.4,12.97,60.9,58.3,61.2,63.8,57.7,40,56,26,0.828,35.9,42.4,27.9,1.951,1.3,295,6.3,3.5,-0.00016,-0.00020,75.7,77.4,17,0,0,57.5,16.16,0.00,0.00
15min,AgWx,beryljct,423,06AUG2018:01:30:00,60.0,12.96,60.5,60.5,60.1,64.4,56.9,43,58,25,0.705,36.6,42.9,27.6,0.943,2.6,292,3.8,5.1,0.00003,0.00009,75.4,77.3,17,0,0,57.8,16.16,0.00,0.00
15min,AgWx,beryljct,423,06AUG2018:01:45:00,59.4,12.96,56.5,54.8,57.1,60.9,54.5,55,68,38,0.923,40.9,44.4,35.3,0,1.7,112,59,5.9,-0.00012,-0.00014,75.1,77.2,17,0,0,54.6,16.16,0.00,0.00
15min,AgWx,beryljct,423,06AUG2018:02:00:00,58.3,12.95,55.6,58.2,55.1,58.2,53.8,53,65,32,0.537,38.0,42.9,28.0,2.105,1.7,195,32,4.4,-0.00012,-0.00015,74.8,77.0,17,0,0,52.8,16.17,0.00,0.00
15min,AgWx,beryljct,423,06AUG2018:02:15:00,57.8,12.95,60.0,57.8,59.8,63.8,57.8,37,55,23,0.891,32.7,41.6,25.6,0,0.7,217,6.0,4.1,-0.00026,-0.00037,74.5,76.9,17,0,0,55.8,16.17,0.00,0.00
15min,AgWx,beryljct,423,06AUG2018:02:30:00,57.1,12.93,54.6,53.5,55.0,57.4,53.5,61,70,54,0.980,41.7,44.1,39.5,0,0.9,143,21,2.5,-0.00023,-0.00032,74.3,76.8,17,0,0,52.4,16.17,0.00,0.00
15min,AgWx,beryljct,423,06AUG2018:02:45:00,56.6,12.92,57.4,56.2,56.8,59.9,53.3,51,70,36,0.738,38.4,43.9,32.5,0.702,0.9,89,41,4.7,-0.00022,-0.00031,74.0,76.7,17,0,0,52.4,16.17,0.00,0.00
15min,AgWx,beryljct,423,06AUG2018:03:00:00,56.2,12.93,58.0,58.3,57.5,60.2,54.9,42,56,31,0.695,34.1,39.5,29.0,2.894,1.6,350,31,3.6,-0.00011,-0.00013,73.7,76.6,17,0,0,54.0,16.17,0.00,0.00
15min,AgWx,beryljct,423,06AUG2018:03:15:00,56.4,12.92,58.2,57.6,58.0,59.1,57.3,40,44,34,0.690,33.7,35.6,30.6,1.578,3.7,316,12,6.0,0.00016,0.00026,73.4,76.4,17,0,0,55.5,16.17,0.00,0.00
15min,AgWx,beryljct,423,06AUG2018:03:30:00,56.2,12.92,55.9,55.2,56.0,57.9,54.2,44,57,36,0.654,34.5,39.6,30.8,3.924,3.2,324,11,4.8,0.00008,0.00015,73.1,76.3,17,0,0,53.8,16.17,0.00,0.00
15min,AgWx,beryljct,423,06AUG2018:03:45:00,55.7,12.9,54.4,55.3,54.2,55.8,52.4,47,57,38,0.636,34.3,37.5,30.2,1.885,2.8,318,9.5,4.1,0.00002,0.00007,72.9,76.2,17,0,0,51.9,16.17,0.00,0.00
15min,AgWx,beryljct,423,06AUG2018:04:00:00,55.3,12.9,53.1,51.4,53.4,56.5,50.1,48,63,35,0.690,33.8,38.1,29.3,3.705,4.1,330,13,6.7,0.00014,0.00022,72.6,76.1,17,0,0,51.7,16.17,0.00,0.00
15min,AgWx,beryljct,423,06AUG2018:04:15:00,54.7,12.9,54.3,55.8,53.5,56.8,50.9,47,57,38,0.643,33.8,36.2,31.0,4.209,5.3,282,14,6.1,0.00022,0.00032,72.3,75.9,17,0,0,51.7,16.17,0.00,0.00
15min,AgWx,beryljct,423,06AUG2018:04:30:00,54.7,12.89,55.4,54.1,55.3,57.1,53.8,43,51,36,0.611,33.1,36.3,30.6,4.516,4.0,320,35,6.2,0.00016,0.00025,72.1,75.8,17,0,0,53.5,16.17,0.00,0.00
15min,AgWx,beryljct,423,06AUG2018:04:45:00,54.6,12.89,57.0,59.1,56.3,60.6,54.0,38,47,27,0.579,30.9,34.6,26.1,0.921,2.7,300,13,6.5,0.00006,0.00013,71.8,75.6,17,0,0,52.9,16.17,0.00,0.00
15min,AgWx,beryljct,423,06AUG2018:05:00:00,54.8,12.86,61.2,61.2,60.7,61.8,59.0,30,35,26,0.565,29.0,32.6,25.8,1.118,1.6,299,6.0,3.1,-0.00010,-0.00010,71.6,75.5,17,0,0,55.4,16.16,0.00,0.00
15min,AgWx,beryljct,423,06AUG2018:05:15:00,55.1,12.88,58.5,57.0,58.8,62.1,55.6,37,49,27,0.653,32.5,38.1,27.1,1.271,1.8,300,1.2,3.0,-0.00007,-0.00005,71.3,75.4,17,0,0,54.9,16.16,0.00,0.00
15min,AgWx,beryljct,423,06AUG2018:05:30:00,54.7,12.87,57.0,61.2,56.4,61.4,53.5,42,56,25,0.510,33.1,38.5,25.2,1.096,1.1,299,0.1,2.4,-0.00019,-0.00025,71.1,75.2,17,0,0,53.0,16.16,0.00,0.00
15min,AgWx,beryljct,423,06AUG2018:05:45:00,54.2,12.86,57.8,57.3,58.0,61.2,55.4,39,53,25,0.629,32.6,38.8,25.4,3.069,2.9,314,8.6,4.7,0.00008,0.00015,70.8,74.6,16,0,0,54.6,16.17,0.00,0.00
15min,AgWx,beryljct,423,06AUG2018:06:00:00,53.5,12.86,52.6,51.2,53.1,57.2,51.2,54,61,39,0.753,36.7,38.8,32.4,0,1.1,311,2.8,3.2,0.00015,0.00026,70.6,74.9,17,0,0,50.8,16.16,0.00,0.00
15min,AgWx,beryljct,423,06AUG2018:06:15:00,52.6,12.86,51.1,51.2,50.9,52.3,49.7,58,65,43,0.551,36.6,38.6,29.5,3.135,1.1,284,38,4.6,0.00012,0.00021,70.3,74.8,17,0,0,48.1,16.16,0.00,0.00
15min,AgWx,beryljct,423,06AUG2018:06:30:00,51.6,12.87,49.0,48.8,49.2,51.5,47.3,55,66,41,0.673,33.6,36.7,28.7,1.863,2.6,169,8.9,4.0,0.00029,0.00050,70.1,74.7,17,0,0,47.4,16.17,0.00,0.00
15min,AgWx,beryljct,423,06AUG2018:06:45:00,50.9,12.86,52.3,51.0,51.8,55.7,48.7,49,59,31,0.696,32.7,37.3,25.7,2.477,1.9,176,0.1,2.5,0.00027,0.00046,69.9,74.5,17,3,0,49.9,16.17,0.00,0.00
15min,AgWx,beryljct,423,06AUG2018:07:00:00,50.4,12.87,49.8,50.7,49.7,51.1,48.9,61,66,53,0.673,36.9,38.3,34.4,0.68,0.9,176,0.1,2.6,0.00016,0.00024,69.7,74.4,17,11,0,48.3,16.17,0.00,0.00
15min,AgWx,beryljct,423,06AUG2018:07:15:00,50.3,12.89,51.3,50.1,51.1,51.8,50.1,54,64,51,0.785,35.1,38.5,33.9,1.381,0.5,175,0.1,2.1,0.00028,0.00034,69.4,74.2,17,35,0,51.4,16.17,0.00,0.00
15min,AgWx,beryljct,423,06AUG2018:07:30:00,50.5,12.92,50.7,49.7,50.5,52.7,49.3,67,74,53,0.801,39.8,42.4,35.9,0,0.9,184,26,3.1,0.00049,0.00057,69.2,74.1,17,71,0,56.3,16.17,0.00,0.00
15min,AgWx,beryljct,423,06AUG2018:07:45:00,51.1,12.9,49.4,49.8,49.2,50.2,48.7,70,74,62,0.828,40.0,41.3,37.8,1.337,1.3,276,0.1,2.0,0.00066,0.00077,68.9,73.0,16,112,0,59.4,16.17,0.00,0.00
15min,AgWx,beryljct,423,06AUG2018:08:00:00,52.3,12.91,53.0,55.3,52.3,55.3,49.9,61,68,48,0.716,39.2,43.2,33.9,0,1.1,276,0.0,2.2,0.00090,0.00104,68.7,73.8,17,156,0,65.1,16.16,0.00,0.00
15min,AgWx,beryljct,423,06AUG2018:08:15:00,54.4,12.95,58.6,58.9,58.0,58.9,55.4,45,54,40,0.726,36.6,41.9,33.8,3.902,0.3,318,20,3.9,0.00116,0.00127,68.6,73.7,17,204,0,73.1,16.16,0.00,0.00
15min,AgWx,beryljct,423,06AUG2018:08:30:00,57.1,13.01,60.5,60.5,60.2,60.9,59.1,39,49,29,0.766,34.7,40.2,28.2,1.929,2.9,5.1,2.7,4.1,0.00181,0.00227,68.4,72.6,16,255,0,75.7,16.16,0.00,0.00
15min,AgWx,beryljct,423,06AUG2018:08:45:00,59.7,13.1,61.1,61.6,60.9,61.7,60.4,44,48,39,0.763,38.9,41.4,36.3,0.877,1.5,2.4,0.0,2.1,0.00192,0.00221,68.2,73.4,16,306,0,81.4,16.16,0.00,0.00
15min,AgWx,beryljct,423,06AUG2018:09:00:00,62.2,13.24,62.7,63.5,62.5,63.6,61.6,41,48,33,0.893,38.2,41.8,32.5,0.592,1.1,2.5,0.1,2.2,0.00222,0.00250,68.1,73.2,16,358,0,87.3,16.15,0.00,0.00
15min,AgWx,beryljct,423,06AUG2018:09:15:00,64.7,13.44,64.4,65.4,64.2,65.4,63.5,36,45,29,0.636,36.9,42.2,31.6,2.477,1.0,2.5,0.3,2.6,0.00255,0.00285,68.0,73.1,16,409,0,91.9,16.15,0.00,0.00
15min,AgWx,beryljct,423,06AUG2018:09:30:00,67.0,13.68,66.3,67.2,66.1,67.2,65.3,36,43,28,0.912,38.3,42.9,31.3,0.329,0.8,356,2.5,2.8,0.00292,0.00323,68.0,73.0,16,462,0,97.0,16.14,0.00,0.00
15min,AgWx,beryljct,423,06AUG2018:09:45:00,69.4,13.93,68.0,68.6,67.9,68.7,67.0,33,40,28,0.724,37.6,41.9,33.7,0,0.8,3.5,6.3,2.6,0.00328,0.00362,68.0,72.8,16,511,0,100.4,16.14,0.00,0.00
15min,AgWx,beryljct,423,06AUG2018:10:00:00,71.7,14.11,69.9,70.5,69.9,70.5,68.7,31,41,25,0.841,38.0,45.7,32.1,1.776,1.6,7.5,14,4.3,0.00375,0.00424,68.0,72.7,16,561,0,103.1,16.14,0.00,0.00
15min,AgWx,beryljct,423,06AUG2018:10:15:00,73.7,14.11,71.0,71.4,71.0,71.4,70.4,32,45,25,0.750,39.7,48.0,33.4,0,2.6,39,7.8,4.4,0.00424,0.00491,68.2,72.6,16,611,0,101.3,16.13,0.00,0.00
15min,AgWx,beryljct,423,06AUG2018:10:30:00,75.3,14.03,71.7,72.5,71.7,72.5,71.4,33,43,23,0.785,41.1,48.3,32.1,0.68,3.2,74,15,5.8,0.00463,0.00541,68.3,72.5,16,655,0,103.1,16.13,0.00,0.00
15min,AgWx,beryljct,423,06AUG2018:10:45:00,76.7,14.01,73.1,74.3,73.1,74.4,72.4,31,42,21,0.749,40.6,48.4,32.0,1.622,2.0,89,11,4.1,0.00482,0.00545,68.6,72.4,16,700,0,108.5,16.13,0.00,0.00
15min,AgWx,beryljct,423,06AUG2018:11:00:00,78.3,14.05,74.6,75.2,74.7,75.5,74.1,28,36,18,0.900,39.2,45.7,28.7,1.732,1.6,97,14,3.6,0.00514,0.00575,68.9,72.3,16,743,0,113.9,16.13,0.00,0.00
15min,AgWx,beryljct,423,06AUG2018:11:15:00,79.8,13.95,75.4,76.2,75.5,76.3,75.1,28,45,19,0.753,40.1,52.3,30.6,3.924,2.4,81,8.5,4.7,0.00554,0.00630,69.3,72.3,16,781,0,112.2,16.13,0.00,0.00
15min,AgWx,beryljct,423,06AUG2018:11:30:00,81.0,13.91,76.9,77.1,77.1,77.8,76.2,27,34,21,0.671,40.4,47.3,33.9,1.315,2.0,257,71,3.5,0.00579,0.00652,69.7,72.2,16,814,0,114.0,16.12,0.00,0.00
15min,AgWx,beryljct,423,06AUG2018:11:45:00,82.2,13.89,78.6,78.5,78.6,79.9,77.1,24,33,17,0.670,38.7,46.7,30.0,3.639,3.0,81,75,8.1,0.00619,0.00713,70.2,72.2,16,845,0,114.4,16.12,0.00,0.00
15min,AgWx,beryljct,423,06AUG2018:12:00:00,83.1,13.95,79.3,79.9,79.4,80.7,78.5,23,35,14,0.765,37.5,49.3,26.6,4.165,4.0,45,21,8.3,0.00658,0.00774,70.7,72.2,16,875,0,109.6,16.12,0.00,0.00
15min,AgWx,beryljct,423,06AUG2018:12:15:00,84.0,13.48,80.0,80.6,80.2,81.1,79.8,24,37,14,0.979,40.2,51.6,26.9,1.688,3.2,80,32,10.8,0.00668,0.00770,71.3,72.2,16,900,0,113.2,16.12,0.00,0.00
15min,AgWx,beryljct,423,06AUG2018:12:30:00,84.9,13.44,80.3,80.8,80.6,80.8,80.4,27,37,17,0.883,43.4,52.2,32.3,4.626,3.2,107,17,4.8,0.00684,0.00784,71.9,72.2,16,924,0,116.5,16.12,0.00,0.00
15min,AgWx,beryljct,423,06AUG2018:12:45:00,85.6,13.43,81.2,81.9,81.4,81.9,80.8,25,36,16,1.163,41.6,52.0,30.9,2.368,3.6,124,10,5.7,0.00707,0.00820,72.6,72.3,16,944,0,116.5,16.12,0.00,0.00
15min,AgWx,beryljct,423,06AUG2018:13:00:00,86.2,13.42,82.2,82.9,82.4,83.0,81.8,22,31,14,1.092,39.7,49.0,28.5,2.762,3.3,127,9.6,5.1,0.00720,0.00830,73.3,72.3,16,963,0,117.7,16.12,0.00,0.00
15min,AgWx,beryljct,423,06AUG2018:13:15:00,87.1,13.41,83.6,85.5,83.7,85.8,82.7,20,34,12,0.570,38.1,52.6,28.3,0.153,2.0,141,7.5,3.9,0.00714,0.00802,74.0,72.4,16,976,0,122.6,16.12,0.00,0.00
15min,AgWx,beryljct,423,06AUG2018:13:30:00,88.3,13.36,84.3,84.6,84.7,85.9,84.2,18,26,12,0.580,35.9,46.0,25.8,0,2.2,164,4.3,3.4,0.00723,0.00816,74.8,72.5,16,980,0,124.3,16.12,0.00,0.00
15min,AgWx,beryljct,423,06AUG2018:13:45:00,89.2,13.45,84.2,84.8,84.6,85.0,84.2,19,31,12,1.220,37.1,50.8,26.3,2.653,1.9,147,5.7,3.1,0.00720,0.00807,75.6,72.6,16,982,0,124.2,16.12,0.00,0.00
15min,AgWx,beryljct,423,06AUG2018:14:00:00,89.9,13.43,84.7,85.1,85.0,85.4,84.8,19,30,12,0.778,37.8,50.2,27.7,1.973,2.1,143,6.6,3.9,0.00723,0.00816,76.4,72.8,16,978,0,122.9,16.12,0.00,0.00
15min,AgWx,beryljct,423,06AUG2018:14:15:00,90.7,13.33,85.7,86.1,86.0,87.5,85.1,19,28,12,0.648,38.3,48.7,27.9,1.688,1.8,146,9.6,3.9,0.00719,0.00805,77.1,73.0,16,974,0,123.6,16.12,0.00,0.00
15min,AgWx,beryljct,423,06AUG2018:14:30:00,91.5,13.3,85.8,86.6,86.1,86.6,85.8,18,31,11,0.926,36.8,52.1,25.3,1.995,1.6,115,8.1,3.9,0.00710,0.00793,77.9,73.1,16,968,0,121.6,16.12,0.00,0.00
15min,AgWx,beryljct,423,06AUG2018:14:45:00,92.3,13.35,85.9,86.8,86.2,86.9,85.7,22,33,11,0.845,42.3,53.9,26.6,1.491,2.3,70,11,3.5,0.00711,0.00804,78.7,73.3,16,949,0,118.0,16.12,0.00,0.00
15min,AgWx,beryljct,423,06AUG2018:15:00:00,92.9,13.25,87.1,88.2,87.3,88.6,86.6,16,28,9.2,0.777,34.8,50.9,21.9,2.653,2.2,105,25,5.2,0.00692,0.00787,79.4,73.6,16,927,0,117.5,16.12,0.00,0.00
15min,AgWx,beryljct,423,06AUG2018:15:15:00,93.4,13.25,86.9,86.8,87.3,88.3,86.5,19,32,10,1.086,39.1,53.2,24.6,1.995,2.7,116,22,5.9,0.00694,0.00797,80.1,73.8,16,912,0,117.1,16.12,0.00,0.00
15min,AgWx,beryljct,423,06AUG2018:15:30:00,93.5,13.21,86.3,86.1,86.6,88.2,85.3,22,38,10,0.706,42.1,57.1,25.4,5.568,3.7,80,29,6.4,0.00684,0.00802,80.7,74.0,16,882,0,110.8,16.12,0.00,0.00
15min,AgWx,beryljct,423,06AUG2018:15:45:00,94.0,13.21,88.6,90.3,88.5,90.3,86.2,16,28,9.2,0.523,36.5,50.8,23.1,5.7,1.7,121,54,8.4,0.00630,0.00709,81.0,74.3,16,856,0,115.3,16.12,0.00,0.00
15min,AgWx,beryljct,423,06AUG2018:16:00:00,94.4,13.21,88.1,87.8,88.6,91.6,86.1,16,28,8.7,0.757,35.5,49.1,22.7,4.209,5.7,25,39,11.5,0.00697,0.00863,81.3,74.5,16,835,0,105.8,16.12,0.00,0.00
15min,AgWx,beryljct,423,06AUG2018:16:15:00,94.2,13.2,85.9,85.9,86.4,88.0,85.0,22,29,9.7,0.835,42.3,49.6,23.6,7.848,5.4,73,20,10.8,0.00638,0.00783,81.4,74.3,16,783,0,104.1,16.12,0.00,0.00
15min,AgWx,beryljct,423,06AUG2018:16:30:00,93.1,13.2,85.8,87.0,86.0,87.1,84.7,22,34,12,0.515,42.0,54.5,27.8,7.103,5.9,89,18,10.2,0.00575,0.00725,81.5,75.0,16,687,0,99.7,16.12,0.00,0.00
15min,AgWx,beryljct,423,06AUG2018:16:45:00,92.9,13.21,88.3,90.0,88.3,90.5,86.5,14,25,7.9,0.440,32.4,47.3,21.0,0,4.5,17,66,11.5,0.00557,0.00694,81.4,75.2,16,685,0,101.4,16.12,0.00,0.00
15min,AgWx,beryljct,423,06AUG2018:17:00:00,93.4,13.25,89.2,90.9,89.4,90.9,87.8,13,25,7.8,0.389,30.2,48.6,20.9,0.658,3.0,42,30,7.1,0.00474,0.00575,81.5,75.5,16,622,0,104.0,16.12,0.00,0.00
15min,AgWx,beryljct,423,06AUG2018:17:15:00,94.2,13.19,88.2,87.6,88.8,90.9,86.9,19,35,8.0,0.597,39.6,56.0,21.5,4.801,2.9,59,72,6.5,0.00450,0.00540,81.5,75.6,16,591,0,103.6,16.12,0.00,0.00
15min,AgWx,beryljct,423,06AUG2018:17:30:00,94.2,13.23,87.8,86.7,88.1,90.1,86.3,23,36,8.4,1.505,43.5,57.5,21.8,3.946,3.6,125,18,4.8,0.00438,0.00539,81.7,75.8,16,555,0,100.5,16.12,0.00,0.00
15min,AgWx,beryljct,423,06AUG2018:17:45:00,93.5,13.2,86.1,86.4,86.3,87.3,85.6,30,39,18,1.197,50.7,58.0,39.1,3.551,3.9,116,4.9,5.9,0.00403,0.00499,81.9,76.0,16,510,0,97.5,16.12,0.00,0.00
15min,AgWx,beryljct,423,06AUG2018:18:00:00,93.1,13.21,88.5,85.6,88.7,90.3,85.6,18,38,8.7,1.334,38.1,59.0,23.0,3.376,2.7,99,34,6.8,0.00344,0.00426,82.2,76.2,16,462,0,98.5,16.12,0.00,0.00
15min,AgWx,beryljct,423,06AUG2018:18:15:00,92.2,13.23,85.1,83.6,85.6,88.2,83.6,26,43,11,1.630,46.1,59.1,25.8,2.477,4.4,120,18,8.1,0.00332,0.00436,82.5,76.4,16,404,0,92.5,16.12,0.00,0.00
15min,AgWx,beryljct,423,06AUG2018:18:30:00,90.9,13.23,84.5,84.2,84.7,85.6,83.6,31,42,25,1.499,50.4,57.8,45.0,3.266,3.4,108,12,5.2,0.00273,0.00350,82.7,76.5,16,358,0,91.2,16.13,0.00,0.00
15min,AgWx,beryljct,423,06AUG2018:18:45:00,89.6,13.31,84.2,85.8,84.1,85.8,83.1,26,39,13,0.546,45.0,55.5,29.3,4.538,5.6,145,28,10.3,0.00281,0.00399,82.9,76.7,16,310,0,87.9,16.13,0.00,0.00
15min,AgWx,beryljct,423,06AUG2018:19:00:00,88.8,13.29,88.6,89.9,88.4,90.7,83.6,14,32,8.2,0.435,31.1,50.6,22.0,0.986,3.0,105,51,6.8,0.00191,0.00274,83.1,76.9,16,261,0,88.5,16.13,0.00,0.00
15min,AgWx,beryljct,423,06AUG2018:19:15:00,88.4,13.24,86.9,87.9,87.4,90.3,82.8,19,44,8.5,0.903,38.1,59.2,22.5,2.477,2.2,61,16,3.1,0.00132,0.00188,83.2,77.1,16,216,0,87.9,16.13,0.00,0.00
15min,AgWx,beryljct,423,06AUG2018:19:30:00,87.9,13.19,87.3,88.1,87.4,89.2,83.6,16,38,9.6,0.611,33.7,56.1,24.2,1.798,2.3,65,1.9,3.2,0.00099,0.00157,83.2,77.2,16,174,0,86.2,16.13,0.00,0.00
15min,AgWx,beryljct,423,06AUG2018:19:45:00,87.3,13.18,88.3,88.9,88.4,88.9,87.9,12,17,9.9,0.476,29.2,37.6,25.1,1.71,2.1,73,5.8,3.0,0.00056,0.00092,83.2,77.4,16,131,0,85.9,16.13,0.00,0.00
15min,AgWx,beryljct,423,06AUG2018:20:00:00,86.3,13.16,86.1,86.2,86.6,88.9,84.3,16,28,10,0.753,34.1,48.6,25.6,1.206,1.2,81,0.0,1.9,0.00017,0.00032,83.2,77.5,16,92,0,83.2,16.13,0.00,0.00
15min,AgWx,beryljct,423,06AUG2018:20:15:00,84.8,13.14,83.9,84.5,84.3,86.6,82.5,22,38,13,0.896,40.6,56.3,28.1,1.578,0.6,82,5.4,2.1,-0.00014,-0.00019,83.1,77.7,16,55,0,79.8,16.13,0.00,0.00
15min,AgWx,beryljct,423,06AUG2018:20:30:00,83.2,13.13,82.1,78.2,82.8,84.8,78.2,19,32,14,0.957,36.1,46.6,28.9,3.047,4.0,174,24,6.5,0.00057,0.00091,83.0,77.8,16,24,0,78.7,16.14,0.00,0.00
15min,AgWx,beryljct,423,06AUG2018:20:45:00,80.9,13.11,79.0,79.1,79.1,81.6,76.2,21,33,13,0.552,35.4,46.0,26.0,4.384,4.2,209,16,5.9,0.00050,0.00079,82.8,77.9,16,5,0,75.6,16.14,0.00,0.00
15min,AgWx,beryljct,423,06AUG2018:21:00:00,79.4,13.1,82.0,80.4,81.9,83.5,79.3,13,21,10,0.579,25.8,37.1,21.4,3.266,3.9,151,10,5.3,0.00050,0.00081,82.5,78.0,16,1,0,75.7,16.14,0.00,0.00
15min,AgWx,beryljct,423,06AUG2018:21:15:00,77.5,13.09,74.2,70.8,75.3,80.1,70.8,25,39,15,0.953,35.8,45.2,27.0,8.05,3.6,197,58,8.1,0.00033,0.00055,82.2,78.1,16,0,0,71.5,16.14,0.00,0.00
15min,AgWx,beryljct,423,06AUG2018:21:30:00,76.6,13.08,79.8,79.4,78.8,81.8,71.0,17,34,13,0.590,30.1,41.3,25.2,4.867,6.2,347,21,10.9,0.00085,0.00124,81.9,78.2,16,0,0,75.0,16.14,0.00,0.00
15min,AgWx,beryljct,423,06AUG2018:21:45:00,76.0,13.07,77.9,79.6,77.8,80.8,74.8,19,26,13,0.536,32.7,38.1,25.4,3.836,5.8,55,7.8,9.3,0.00076,0.00111,81.6,78.2,16,0,0,74.6,16.14,0.00,0.00
15min,AgWx,beryljct,423,06AUG2018:22:00:00,75.3,13.06,78.6,78.3,78.7,80.5,77.1,17,23,15,0.516,30.6,37.9,27.1,4.669,4.2,28,5.6,6.0,0.00050,0.00080,81.2,78.3,17,0,0,74.3,16.14,0.00,0.00
15min,AgWx,beryljct,423,06AUG2018:22:15:00,74.7,13.05,77.2,75.8,77.5,79.8,74.6,18,25,14,0.522,29.9,38.5,25.3,0,1.6,13,3.6,5.9,-0.00008,-0.00005,80.9,78.3,17,0,0,72.2,16.14,0.00,0.00
15min,AgWx,beryljct,423,06AUG2018:22:30:00,73.6,13.04,74.3,65.3,75.4,78.4,65.3,22,52,14,1.083,31.1,48.4,25.0,1.666,1.5,309,33,3.4,-0.00013,-0.00013,80.5,78.3,17,0,0,70.7,16.14,0.00,0.00
15min,AgWx,beryljct,423,06AUG2018:22:45:00,71.5,13.02,64.3,65.6,64.4,65.6,63.6,44,55,30,0.652,42.0,47.8,33.6,6.204,3.9,304,11,6.9,0.00018,0.00029,80.1,78.3,17,0,0,62.6,16.14,0.00,0.00
15min,AgWx,beryljct,423,06AUG2018:23:00:00,69.5,13.01,67.3,68.9,66.9,68.9,65.2,33,40,26,0.697,36.5,40.5,31.2,3.814,4.2,300,8.2,6.1,0.00032,0.00050,79.8,78.3,17,0,0,63.8,16.15,0.00,0.00
15min,AgWx,beryljct,423,06AUG2018:23:15:00,68.1,13.01,66.8,67.0,66.9,70.7,64.0,34,44,20,0.783,37.0,41.9,27.4,5.086,3.1,292,6.6,5.6,0.00015,0.00028,79.4,78.3,17,0,0,64.0,16.15,0.00,0.00
15min,AgWx,beryljct,423,06AUG2018:23:30:00,67.0,13,66.3,67.2,66.2,70.0,63.8,36,49,21,0.685,37.7,45.0,28.0,4.779,4.6,304,5.9,6.4,0.00033,0.00051,79.1,78.3,17,0,0,64.1,16.15,0.00,0.00
15min,AgWx,beryljct,423,06AUG2018:23:45:00,66.2,12.99,66.5,66.9,66.4,67.8,64.9,33,41,28,0.743,36.2,41.0,33.5,1.096,1.3,304,9.0,5.0,-0.00014,-0.00017,78.7,78.2,17,0,0,62.3,16.15,0.00,0.00
15min,AgWx,beryljct,423,07AUG2018:00:00:00,65.4,12.96,64.6,61.6,65.1,67.8,61.6,38,50,26,0.905,38.3,44.0,31.6,2.894,0.7,289,23,2.9,-0.00029,-0.00042,78.3,78.2,17,0,0,60.7,16.15,0.00,0.00
15min,AgWx,beryljct,423,07AUG2018:00:15:00,64.3,12.97,62.0,60.0,62.1,65.5,59.2,44,59,27,0.897,39.5,45.5,30.1,0,0.7,217,0.5,3.1,-0.00027,-0.00039,78.0,78.1,17,0,0,59.0,16.15,0.00,0.00
15min,AgWx,beryljct,423,07AUG2018:00:30:00,63.0,12.96,60.8,60.9,60.6,62.5,58.6,51,63,41,0.906,42.3,46.2,38.7,0,0.1,217,0.0,0.9,-0.00038,-0.00060,77.7,78.0,17,0,0,55.9,16.15,0.00,0.00
15min,AgWx,beryljct,423,07AUG2018:00:45:00,62.0,12.96,61.3,59.6,61.3,62.3,59.6,44,53,32,0.874,38.9,43.4,31.9,0,0.2,217,0.1,0.8,-0.00037,-0.00058,77.3,77.4,17,0,0,56.1,16.16,0.00,0.00
15min,AgWx,bigpiney,439,06AUG2018:01:00:00,52.7,12.81,43.9,43.8,44.6,48.0,42.8,61,67,52,0.608,31.8,32.5,31.0,3.705,3.1,157,18,4.9,0.00002,0.00005,55.7,54.4,45,0,0,0.0,.,0.00,0.00
15min,AgWx,bigpiney,439,06AUG2018:01:15:00,51.3,12.8,43.3,42.8,42.3,43.8,41.5,67,70,63,0.592,32.0,32.5,31.2,4.976,4.1,198,16,6.1,0.00004,0.00007,55.7,54.4,45,0,0,0.0,.,0.00,0.00
15min,AgWx,bigpiney,439,06AUG2018:01:30:00,50.2,12.79,43.1,43.3,43.4,44.0,42.6,64,66,62,0.608,31.8,32.1,31.2,4.582,4.2,250,18,5.9,0.00006,0.00010,55.6,54.4,45,0,0,0.0,.,0.00,0.00
15min,AgWx,bigpiney,439,06AUG2018:01:45:00,49.4,12.78,43.1,42.5,43.0,43.9,42.2,63,66,61,0.585,31.5,32.2,30.6,5.239,4.5,280,28,6.1,0.00007,0.00011,55.5,54.4,45,0,0,0.0,.,0.00,0.00
15min,AgWx,bigpiney,439,06AUG2018:02:00:00,48.7,12.77,42.9,42.6,43.0,43.9,42.5,62,64,59,0.594,31.0,31.3,30.6,4.187,4.8,239,12,6.6,0.00009,0.00014,55.5,54.4,45,0,0,0.0,.,0.00,0.00
15min,AgWx,bigpiney,439,06AUG2018:02:15:00,48.2,12.76,47.4,47.7,44.2,47.7,42.6,60,64,50,0.559,31.1,31.6,29.8,2.806,3.5,266,42,5.3,0.00005,0.00009,55.4,54.4,45,0,0,0.0,.,0.00,0.00
15min,AgWx,bigpiney,439,06AUG2018:02:30:00,47.9,12.75,38.8,38.7,43.1,47.7,38.7,62,73,50,0.578,30.7,31.2,29.9,5.656,4.6,201,10,6.7,0.00009,0.00014,55.4,54.4,45,0,0,0.0,.,0.00,0.00
15min,AgWx,bigpiney,439,06AUG2018:02:45:00,47.3,12.74,39.7,39.4,38.9,39.4,38.4,73,74,71,0.582,30.8,31.1,30.5,5.393,6.0,224,9.3,7.5,0.00006,0.00008,55.3,54.4,45,0,0,0.0,.,0.00,0.00
15min,AgWx,bigpiney,439,06AUG2018:03:00:00,46.5,12.73,43.6,43.5,41.0,44.0,39.4,66,71,56,0.548,30.4,30.8,29.3,2.302,3.1,313,72,6.5,-0.00000,0.00002,55.3,54.4,45,0,0,0.0,.,0.00,0.00
15min,AgWx,bigpiney,439,06AUG2018:03:15:00,45.9,12.73,39.6,39.6,41.6,43.4,39.5,63,69,57,0.570,29.7,30.3,29.3,0,1.7,59,27,4.5,-0.00007,-0.00008,55.2,54.4,45,0,0,0.0,.,0.00,0.00
15min,AgWx,bigpiney,439,06AUG2018:03:30:00,45.3,12.71,39.2,38.8,40.1,42.2,38.7,67,70,62,0.561,29.9,30.4,29.1,3.727,2.9,205,11,6.3,-0.00002,-0.00001,55.2,54.4,45,0,0,0.0,.,0.00,0.00
15min,AgWx,bigpiney,439,06AUG2018:03:45:00,44.6,12.71,38.0,37.8,37.6,38.8,36.7,74,77,70,0.576,30.1,30.9,29.6,3.135,3.3,240,49,6.6,-0.00002,-0.00002,55.1,54.4,45,0,0,0.0,.,0.00,0.00
15min,AgWx,bigpiney,439,06AUG2018:04:00:00,43.9,12.7,38.0,37.9,37.8,38.5,37.3,74,75,72,0.565,30.3,30.7,29.9,1.6,2.9,259,44,4.7,-0.00004,-0.00004,55.0,54.3,45,0,0,0.0,.,0.00,0.00
15min,AgWx,bigpiney,439,06AUG2018:04:15:00,43.2,12.68,37.2,37.5,37.9,39.5,37.0,72,75,67,0.548,29.6,30.2,28.8,2.959,2.0,189,52,3.9,-0.00007,-0.00009,55.0,54.3,45,0,0,0.0,.,0.00,0.00
15min,AgWx,bigpiney,439,06AUG2018:04:30:00,42.5,12.66,33.2,33.2,35.0,37.5,33.2,79,84,72,0.540,29.1,29.6,28.8,3.091,2.8,211,9.5,3.6,-0.00006,-0.00006,54.9,54.3,45,0,0,0.0,.,0.00,0.00
15min,AgWx,bigpiney,439,06AUG2018:04:45:00,41.7,12.66,33.3,33.2,33.4,33.8,33.1,85,85,84,0.548,29.3,29.7,28.9,2.17,2.1,228,5.0,3.6,-0.00009,-0.00011,54.8,54.3,45,0,0,0.0,.,0.00,0.00
15min,AgWx,bigpiney,439,06AUG2018:05:00:00,40.9,12.64,34.0,33.5,33.0,33.5,32.5,84,86,83,0.537,28.7,29.4,28.4,1.885,2.5,210,12,3.7,-0.00008,-0.00009,54.7,54.3,45,0,0,0.0,.,0.00,0.00
15min,AgWx,bigpiney,439,06AUG2018:05:15:00,40.3,12.63,33.5,33.3,33.5,34.1,33.0,83,86,81,0.550,28.9,29.5,28.4,0.921,2.3,280,70,4.6,-0.00008,-0.00010,54.7,54.3,45,0,0,0.0,.,0.00,0.00
15min,AgWx,bigpiney,439,06AUG2018:05:30:00,39.7,12.62,35.7,35.1,33.8,35.1,32.7,83,87,77,0.531,29.0,30.1,28.5,1.995,2.3,265,16,3.5,-0.00008,-0.00010,54.6,54.2,45,0,0,0.0,.,0.00,0.00
15min,AgWx,bigpiney,439,06AUG2018:05:45:00,39.2,12.61,35.5,34.9,34.5,35.2,33.8,78,82,76,0.529,28.5,29.1,28.2,3.354,2.7,259,8.0,3.7,-0.00006,-0.00007,54.5,54.2,45,0,0,0.0,.,0.00,0.00
15min,AgWx,bigpiney,439,06AUG2018:06:00:00,38.9,12.6,34.1,34.6,35.2,35.8,34.3,77,81,76,0.539,28.8,29.3,28.5,2.105,3.4,267,22,4.6,-0.00003,-0.00003,54.4,54.2,45,0,0,0.0,.,0.00,0.00
15min,AgWx,bigpiney,439,06AUG2018:06:15:00,38.7,12.58,35.0,34.4,33.7,34.5,33.3,81,82,79,0.535,28.5,28.9,28.2,4.626,3.8,223,7.9,5.5,-0.00003,-0.00003,54.3,54.2,45,2,0,0.0,.,0.00,0.00
15min,AgWx,bigpiney,439,06AUG2018:06:30:00,38.6,12.59,34.7,34.5,34.6,35.1,34.2,79,80,77,0.528,28.7,28.9,28.4,4.275,4.3,230,8.6,5.3,-0.00001,0.00000,54.2,54.1,45,7,0,0.0,.,0.00,0.00
15min,AgWx,bigpiney,439,06AUG2018:06:45:00,38.7,12.6,33.5,33.4,34.4,34.9,33.4,79,81,78,0.523,28.5,28.8,28.1,3.595,3.5,223,9.5,5.2,-0.00016,-0.00008,54.2,54.1,45,22,0,0.0,.,0.00,0.00
15min,AgWx,bigpiney,439,06AUG2018:07:00:00,38.7,12.63,35.6,34.8,33.3,34.8,32.7,84,85,81,0.576,28.9,30.6,28.0,0.723,2.3,243,35,4.0,-0.00011,-0.00007,54.1,54.1,45,50,0,0.0,.,0.00,0.00
15min,AgWx,bigpiney,439,06AUG2018:07:15:00,39.0,12.63,37.1,36.7,36.0,36.8,34.8,79,84,74,0.562,30.1,30.6,29.5,1.118,0.6,77,35,2.5,0.00002,0.00004,54.0,54.1,45,85,0,0.0,.,0.00,0.00
15min,AgWx,bigpiney,439,06AUG2018:07:30:00,39.8,12.69,38.8,38.2,37.4,38.3,36.6,79,81,76,0.617,31.6,32.9,30.0,1.6,1.3,153,13,1.8,0.00024,0.00029,53.9,54.0,45,125,0,0.0,.,0.00,0.00
15min,AgWx,bigpiney,439,06AUG2018:07:45:00,41.1,12.75,42.7,42.2,40.2,42.3,38.3,76,79,69,0.628,33.0,33.8,32.3,0.921,1.2,175,8.9,2.4,0.00047,0.00054,53.8,54.0,45,166,0,0.0,.,0.00,0.00
15min,AgWx,bigpiney,439,06AUG2018:08:00:00,42.8,12.82,44.5,44.2,43.0,44.2,42.3,70,72,68,0.669,33.9,34.9,32.6,0,0.6,173,17,1.5,0.00071,0.00078,53.7,54.0,45,211,0,0.0,.,0.00,0.00
15min,AgWx,bigpiney,439,06AUG2018:08:15:00,45.0,13,45.7,45.6,45.1,45.8,44.2,63,68,60,0.629,33.4,34.8,32.3,0.723,0.9,82,23,2.1,0.00100,0.00112,53.6,53.9,45,258,0,0.0,.,0.00,0.00
15min,AgWx,bigpiney,439,06AUG2018:08:30:00,47.0,13.25,47.8,47.5,46.7,47.6,45.5,61,64,59,0.692,33.9,35.6,32.0,0,0.3,104,15,1.8,0.00127,0.00138,53.5,53.9,45,307,0,0.0,.,0.00,0.00
15min,AgWx,bigpiney,439,06AUG2018:08:45:00,48.8,13.51,48.9,49.0,48.5,49.1,47.5,61,64,57,0.701,35.5,37.0,34.1,1.82,1.3,109,15,3.6,0.00162,0.00180,53.4,53.9,45,356,0,0.0,.,0.00,0.00